When you browse on this site, cookies collect data to enhance your experience and personalize the content and advertising you see.
Visit our Privacy Policy to learn more. By continuing to use the site, you agree to this use of cookies and data.
  • In Hungary
  • List of Countries
  • For 7 days
  • Water Temperature
  • Satellite Maps
  • Weather Map
  • News
  • Weather Widgets
  • user-avatar
    Login

    Hourly Weather Lubartów

    Today, 18 February, Monday

    Time Temperature Precipitation Wind Pressure Humidity
    00:00 +6°C° 0 mm 1 mps 755 mmHg 92%
    01:00 +6°C° 0 mm 1 mps 755 mmHg 91%
    02:00 +6°C° 0 mm 1 mps 755 mmHg 91%
    03:00 +5°C° 0 mm 0 mps 755 mmHg 90%
    04:00 +4°C° 0 mm 0 mps 755 mmHg 90%
    05:00 +4°C° 0 mm 0 mps 755 mmHg 89%
    06:00 +4°C° 0 mm 0 mps 755 mmHg 89%
    07:00 +5°C° 0 mm 1 mps 755 mmHg 89%
    08:00 +5°C° 0 mm 1 mps 755 mmHg 89%
    09:00 +6°C° 0 mm 1 mps 755 mmHg 87%
    10:00 +6°C° 0 mm 1 mps 755 mmHg 86%
    11:00 +7°C° 0 mm 1 mps 755 mmHg 84%
    12:00 +8°C° 0 mm 1 mps 755 mmHg 79%
    13:00 +8°C° 0 mm 1 mps 755 mmHg 75%
    14:00 +9°C° 0 mm 1 mps 754 mmHg 70%
    15:00 +9°C° 0 mm 1 mps 754 mmHg 71%
    16:00 +9°C° 0 mm 1 mps 754 mmHg 72%
    17:00 +9°C° 0 mm 1 mps 753 mmHg 74%
    18:00 +7°C° 0 mm 2 mps 753 mmHg 77%
    19:00 +6°C° 0 mm 2 mps 753 mmHg 81%
    20:00 +5°C° 0 mm 2 mps 753 mmHg 85%
    21:00 +4°C° 0 mm 3 mps 753 mmHg 87%
    22:00 +3°C° 0 mm 3 mps 753 mmHg 89%
    23:00 +3°C° 0 mm 3 mps 753 mmHg 91%

    Tomorrow, 19 February, Tuesday

    Time Temperature Precipitation Wind Pressure Humidity
    00:00 +2°C° 0 mm 3 mps 752 mmHg 91%
    01:00 +2°C° 0 mm 3 mps 752 mmHg 91%
    02:00 +2°C° 0 mm 3 mps 752 mmHg 91%
    03:00 +1°C° 0 mm 3 mps 752 mmHg 91%
    04:00 +1°C° 0 mm 3 mps 751 mmHg 91%
    05:00 +1°C° 0 mm 3 mps 751 mmHg 91%
    06:00 +1°C° 0 mm 3 mps 751 mmHg 90%
    07:00 0°C° 0 mm 3 mps 751 mmHg 90%
    08:00 0°C° 0 mm 3 mps 750 mmHg 89%
    09:00 +1°C° 0 mm 4 mps 750 mmHg 82%
    10:00 +4°C° 0 mm 4 mps 750 mmHg 74%
    11:00 +5°C° 0 mm 4 mps 750 mmHg 67%
    12:00 +7°C° 0 mm 5 mps 749 mmHg 62%
    13:00 +8°C° 0 mm 5 mps 749 mmHg 56%
    14:00 +9°C° 0 mm 5 mps 749 mmHg 50%
    15:00 +9°C° 0 mm 5 mps 748 mmHg 52%
    16:00 +8°C° 0 mm 4 mps 748 mmHg 53%
    17:00 +8°C° 0 mm 4 mps 747 mmHg 55%
    18:00 +7°C° 0 mm 4 mps 747 mmHg 60%
    19:00 +6°C° 0 mm 4 mps 747 mmHg 64%
    20:00 +5°C° 0 mm 4 mps 747 mmHg 69%
    21:00 +4°C° 0 mm 4 mps 747 mmHg 72%
    22:00 +4°C° 0 mm 4 mps 747 mmHg 74%
    23:00 +4°C° 0 mm 4 mps 747 mmHg 77%

    Day after tomorrow, 20 February, Wednesday

    Time Temperature Precipitation Wind Pressure Humidity
    00:00 +4°C° 0 mm 4 mps 747 mmHg 79%
    01:00 +4°C° 0 mm 4 mps 747 mmHg 82%
    02:00 +3°C° 0 mm 5 mps 748 mmHg 84%
    03:00 +4°C° 0.1 mm 4 mps 748 mmHg 87%
    04:00 +4°C° 0.1 mm 4 mps 748 mmHg 91%
    05:00 +3°C° 0.1 mm 3 mps 748 mmHg 94%
    06:00 +3°C° 0 mm 4 mps 748 mmHg 93%
    07:00 +3°C° 0 mm 4 mps 748 mmHg 92%
    08:00 +1°C° 0 mm 5 mps 749 mmHg 91%
    09:00 +2°C° 0 mm 5 mps 749 mmHg 86%
    10:00 +3°C° 0 mm 6 mps 749 mmHg 81%
    11:00 +4°C° 0 mm 7 mps 750 mmHg 76%
    12:00 +4°C° 0 mm 7 mps 750 mmHg 76%
    13:00 +3°C° 0 mm 7 mps 750 mmHg 76%
    14:00 +3°C° 0 mm 7 mps 750 mmHg 75%
    15:00 +3°C° 0 mm 6 mps 750 mmHg 74%
    16:00 +4°C° 0 mm 6 mps 750 mmHg 73%
    17:00 +4°C° 0 mm 6 mps 750 mmHg 72%
    18:00 +3°C° 0.1 mm 6 mps 751 mmHg 74%
    19:00 +3°C° 0.1 mm 6 mps 751 mmHg 75%
    20:00 +3°C° 0.1 mm 6 mps 751 mmHg 77%
    21:00 +2°C° 0 mm 5 mps 751 mmHg 80%
    22:00 +2°C° 0 mm 5 mps 751 mmHg 83%
    23:00 +1°C° 0 mm 4 mps 751 mmHg 86%

    21 February, Thursday

    Time Temperature Precipitation Wind Pressure Humidity
    00:00 +1°C° 0 mm 5 mps 752 mmHg 87%
    01:00 +1°C° 0 mm 5 mps 752 mmHg 87%
    02:00 +1°C° 0 mm 5 mps 752 mmHg 88%
    03:00 +1°C° 0 mm 5 mps 752 mmHg 88%
    04:00 +2°C° 0 mm 5 mps 752 mmHg 88%
    05:00 +2°C° 0 mm 5 mps 751 mmHg 88%
    06:00 +2°C° 0 mm 5 mps 752 mmHg 88%
    07:00 +2°C° 0 mm 5 mps 752 mmHg 89%
    08:00 +2°C° 0 mm 5 mps 752 mmHg 89%
    09:00 +2°C° 0.2 mm 5 mps 752 mmHg 87%
    10:00 +3°C° 0.2 mm 6 mps 752 mmHg 85%
    11:00 +3°C° 0.2 mm 6 mps 752 mmHg 83%
    12:00 +4°C° 0.1 mm 6 mps 752 mmHg 82%
    13:00 +4°C° 0.1 mm 6 mps 752 mmHg 80%
    14:00 +4°C° 0.1 mm 6 mps 752 mmHg 78%
    15:00 +5°C° 0.1 mm 5 mps 752 mmHg 81%
    16:00 +5°C° 0.1 mm 5 mps 752 mmHg 83%
    17:00 +5°C° 0.1 mm 4 mps 752 mmHg 85%
    18:00 +5°C° 0.2 mm 4 mps 753 mmHg 87%
    19:00 +4°C° 0.2 mm 3 mps 753 mmHg 90%
    20:00 +4°C° 0.2 mm 3 mps 753 mmHg 93%
    21:00 +4°C° 0.2 mm 3 mps 754 mmHg 94%
    22:00 +5°C° 0.2 mm 2 mps 754 mmHg 95%
    23:00 +5°C° 0.2 mm 2 mps 754 mmHg 96%

    22 February, Friday

    Time Temperature Precipitation Wind Pressure Humidity
    00:00 +5°C° 0.1 mm 2 mps 755 mmHg 95%
    01:00 +4°C° 0.1 mm 2 mps 755 mmHg 94%
    02:00 +3°C° 0.1 mm 3 mps 756 mmHg 93%
    03:00 +2°C° 0 mm 3 mps 756 mmHg 87%
    04:00 +2°C° 0 mm 3 mps 756 mmHg 82%
    05:00 +1°C° 0 mm 3 mps 757 mmHg 77%
    06:00 +1°C° 0 mm 3 mps 758 mmHg 72%
    07:00 0°C° 0 mm 3 mps 758 mmHg 68%
    08:00 0°C° 0 mm 3 mps 759 mmHg 64%
    09:00 0°C° 0 mm 3 mps 760 mmHg 59%
    10:00 0°C° 0 mm 3 mps 760 mmHg 54%
    11:00 -1°C° 0 mm 4 mps 761 mmHg 49%
    12:00 0°C° 0 mm 4 mps 761 mmHg 47%
    13:00 0°C° 0 mm 4 mps 762 mmHg 44%
    14:00 +1°C° 0 mm 4 mps 762 mmHg 42%
    15:00 +1°C° 0 mm 4 mps 763 mmHg 41%
    16:00 0°C° 0 mm 4 mps 763 mmHg 41%
    17:00 0°C° 0 mm 4 mps 764 mmHg 41%
    18:00 0°C° 0 mm 3 mps 764 mmHg 44%
    19:00 -1°C° 0 mm 3 mps 765 mmHg 47%
    20:00 -1°C° 0 mm 3 mps 765 mmHg 49%
    21:00 -2°C° 0 mm 3 mps 766 mmHg 48%
    22:00 -2°C° 0 mm 3 mps 766 mmHg 46%
    23:00 -2°C° 0 mm 3 mps 767 mmHg 45%

    23 February, Saturday

    Time Temperature Precipitation Wind Pressure Humidity
    00:00 -2°C° 0 mm 2 mps 767 mmHg 44%
    01:00 -2°C° 0 mm 2 mps 767 mmHg 42%
    02:00 -1°C° 0 mm 1 mps 767 mmHg 41%
    03:00 -1°C° 0 mm 1 mps 767 mmHg 41%
    04:00 -1°C° 0 mm 1 mps 768 mmHg 40%
    05:00 -2°C° 0 mm 0 mps 768 mmHg 40%
    06:00 -2°C° 0 mm 0 mps 768 mmHg 40%
    07:00 -1°C° 0 mm 1 mps 768 mmHg 40%
    08:00 -1°C° 0 mm 1 mps 768 mmHg 40%
    09:00 0°C° 0 mm 1 mps 768 mmHg 37%
    10:00 +1°C° 0 mm 1 mps 768 mmHg 34%
    11:00 -1°C° 0 mm 2 mps 768 mmHg 31%
    12:00 +1°C° 0 mm 2 mps 767 mmHg 30%
    13:00 +1°C° 0 mm 3 mps 767 mmHg 29%
    14:00 +2°C° 0 mm 3 mps 766 mmHg 29%
    15:00 +2°C° 0 mm 3 mps 766 mmHg 32%
    16:00 +2°C° 0 mm 3 mps 765 mmHg 36%
    17:00 +2°C° 0 mm 3 mps 765 mmHg 40%
    18:00 +2°C° 0 mm 3 mps 764 mmHg 44%
    19:00 +1°C° 0 mm 3 mps 764 mmHg 49%
    20:00 0°C° 0 mm 4 mps 764 mmHg 53%
    21:00 +1°C° 0 mm 3 mps 764 mmHg 60%
    22:00 0°C° 0 mm 3 mps 763 mmHg 67%
    23:00 0°C° 0 mm 3 mps 763 mmHg 74%
    Show more